| time (UTC) | temp F | wind direction | speed MPH | gust MPH | rain 1hr in | rain 24hr in | rain mn in | humidity % | barometer mb |
| 20260505003027 | 50 | 138 | 3.0 | 7.0 | 0.00 | 0.52 | 0.42 | 76 | 1007.8 |
| 20260505002511 | 50 | 148 | 2.0 | 5.0 | 0.00 | 0.52 | 0.42 | 75 | 1007.9 |
| 20260505002012 | 51 | 88 | 2.0 | 7.0 | 0.00 | 0.52 | 0.42 | 76 | 1008.1 |
| 20260505001528 | 51 | 141 | 2.0 | 10.0 | 0.00 | 0.52 | 0.42 | 76 | 1008.0 |
| 20260505001008 | 52 | 156 | 5.0 | 10.0 | 0.00 | 0.52 | 0.42 | 73 | 1008.1 |
| 20260505000508 | 52 | 112 | 3.0 | 6.0 | 0.00 | 0.52 | 0.42 | 72 | 1008.2 |
| 20260505000031 | 52 | 153 | 1.0 | 5.0 | 0.00 | 0.52 | 0.42 | 74 | 1008.2 |
| 20260504235511 | 52 | 0 | 1.0 | 5.0 | 0.00 | 0.52 | 0.42 | 70 | 1008.3 |
| 20260504235011 | 52 | 117 | 1.0 | 4.0 | 0.00 | 0.52 | 0.42 | 73 | 1008.4 |
| 20260504234531 | 52 | 159 | 1.0 | 7.0 | 0.00 | 0.52 | 0.42 | 75 | 1008.4 |
| 20260504234011 | 51 | 132 | 2.0 | 7.0 | 0.00 | 0.52 | 0.42 | 78 | 1008.3 |
| 20260504233510 | 51 | 0 | 0.0 | 1.0 | 0.00 | 0.52 | 0.42 | 85 | 1008.3 |
| 20260504233030 | 50 | 24 | 0.0 | 2.0 | 0.00 | 0.52 | 0.42 | 84 | 1008.4 |
| 20260504232508 | 49 | 0 | 1.0 | 2.0 | 0.00 | 0.52 | 0.42 | 83 | 1008.4 |
| 20260504232010 | 49 | 11 | 1.0 | 2.0 | 0.00 | 0.52 | 0.42 | 86 | 1008.7 |
| 20260504231529 | 49 | 43 | 0.0 | 2.0 | 0.00 | 0.52 | 0.42 | 85 | 1008.9 |
| 20260504231010 | 49 | 82 | 0.0 | 1.0 | 0.00 | 0.52 | 0.42 | 85 | 1009.0 |
| 20260504230508 | 48 | 312 | 0.0 | 2.0 | 0.00 | 0.52 | 0.42 | 88 | 1009.2 |
| 20260504230030 | 48 | 26 | 0.0 | 3.0 | 0.00 | 0.52 | 0.42 | 89 | 1009.4 |
| 20260504225510 | 47 | 43 | 0.0 | 3.0 | 0.00 | 0.52 | 0.42 | 89 | 1009.4 |
| 20260504225010 | 47 | 96 | 1.0 | 2.0 | 0.00 | 0.52 | 0.42 | 89 | 1009.5 |
| 20260504224535 | 47 | 343 | 1.0 | 3.0 | 0.00 | 0.52 | 0.42 | 87 | 1009.4 |
| 20260504224010 | 47 | 43 | 1.0 | 3.0 | 0.00 | 0.52 | 0.42 | 88 | 1009.6 |
| 20260504223513 | 46 | 69 | 0.0 | 3.0 | 0.00 | 0.52 | 0.42 | 87 | 1009.8 |
| 20260504223029 | 46 | 105 | 0.0 | 3.0 | 0.00 | 0.52 | 0.42 | 89 | 1009.5 |
| 20260504222509 | 46 | 35 | 0.0 | 3.0 | 0.00 | 0.52 | 0.42 | 89 | 1009.6 |
| 20260504222010 | 46 | 117 | 1.0 | 4.0 | 0.00 | 0.52 | 0.42 | 89 | 1009.8 |
| 20260504221557 | 46 | 26 | 1.0 | 4.0 | 0.00 | 0.52 | 0.42 | 90 | 1010.0 |
| 20260504221009 | 45 | 351 | 1.0 | 4.0 | 0.00 | 0.52 | 0.42 | 91 | 1010.0 |
| 20260504220513 | 45 | 322 | 0.0 | 4.0 | 0.00 | 0.52 | 0.42 | 92 | 1010.0 |
| 20260504220028 | 45 | 128 | 0.0 | 2.0 | 0.00 | 0.52 | 0.42 | 93 | 1010.2 |
| 20260504215511 | 45 | 14 | 0.0 | 2.0 | 0.00 | 0.52 | 0.42 | 94 | 1010.3 |
| 20260504215011 | 45 | 11 | 0.0 | 2.0 | 0.00 | 0.52 | 0.42 | 94 | 1010.4 |
| 20260504214530 | 45 | 0 | 0.0 | 2.0 | 0.00 | 0.52 | 0.42 | 94 | 1010.5 |
| 20260504214009 | 45 | 20 | 0.0 | 2.0 | 0.00 | 0.52 | 0.42 | 94 | 1010.6 |
| 20260504213514 | 44 | 0 | 0.0 | 2.0 | 0.00 | 0.52 | 0.42 | 94 | 1010.8 |
| 20260504213030 | 44 | 52 | 0.0 | 2.0 | 0.00 | 0.52 | 0.42 | 94 | 1010.9 |
| 20260504212510 | 44 | 281 | 0.0 | 1.0 | 0.00 | 0.52 | 0.42 | 94 | 1011.0 |
| 20260504212013 | 44 | 0 | 0.0 | 1.0 | 0.01 | 0.52 | 0.42 | 94 | 1011.3 |
| 20260504211527 | 44 | 62 | 0.0 | 1.0 | 0.01 | 0.52 | 0.42 | 94 | 1011.3 |
| 20260504211008 | 43 | 0 | 0.0 | 2.0 | 0.01 | 0.52 | 0.42 | 94 | 1011.3 |
| 20260504210509 | 43 | 0 | 0.0 | 2.0 | 0.01 | 0.52 | 0.42 | 94 | 1011.4 |
| 20260504210036 | 43 | 333 | 0.0 | 2.0 | 0.01 | 0.52 | 0.42 | 94 | 1011.5 |
| 20260504205509 | 43 | 311 | 0.0 | 1.0 | 0.02 | 0.52 | 0.42 | 94 | 1011.8 |
| 20260504205009 | 43 | 0 | 0.0 | 1.0 | 0.02 | 0.52 | 0.42 | 94 | 1012.2 |
| 20260504204537 | 43 | 0 | 0.0 | 1.0 | 0.02 | 0.52 | 0.42 | 94 | 1012.1 |
| 20260504204009 | 43 | 309 | 0.0 | 1.0 | 0.02 | 0.52 | 0.42 | 94 | 1012.1 |
| 20260504203509 | 43 | 0 | 0.0 | 1.0 | 0.02 | 0.52 | 0.42 | 94 | 1012.3 |
| 20260504203031 | 43 | 0 | 0.0 | 2.0 | 0.03 | 0.52 | 0.42 | 94 | 1012.3 |
| 20260504202510 | 43 | 0 | 0.0 | 2.0 | 0.03 | 0.52 | 0.42 | 94 | 1012.4 |
| 20260504202008 | 43 | 36 | 0.0 | 2.0 | 0.02 | 0.51 | 0.41 | 94 | 1012.7 |
| 20260504201530 | 43 | 0 | 0.0 | 2.0 | 0.03 | 0.51 | 0.41 | 94 | 1013.0 |
| 20260504201009 | 43 | 294 | 0.0 | 2.0 | 0.03 | 0.51 | 0.41 | 94 | 1012.9 |
| 20260504200509 | 43 | 304 | 0.0 | 2.0 | 0.03 | 0.51 | 0.41 | 94 | 1013.1 |
| 20260504200030 | 43 | 23 | 0.0 | 3.0 | 0.03 | 0.51 | 0.41 | 94 | 1013.2 |
| 20260504195509 | 43 | 29 | 0.0 | 3.0 | 0.02 | 0.50 | 0.40 | 94 | 1013.4 |
| 20260504195011 | 42 | 40 | 0.0 | 3.0 | 0.03 | 0.50 | 0.40 | 94 | 1013.4 |
| 20260504194529 | 42 | 28 | 0.0 | 4.0 | 0.03 | 0.50 | 0.40 | 94 | 1013.4 |
| 20260504194010 | 42 | 74 | 1.0 | 4.0 | 0.03 | 0.50 | 0.40 | 94 | 1013.4 |
| 20260504193511 | 42 | 36 | 0.0 | 3.0 | 0.04 | 0.50 | 0.40 | 94 | 1013.4 |
| 20260504193030 | 42 | 351 | 0.0 | 2.0 | 0.03 | 0.49 | 0.39 | 94 | 1013.7 |
| 20260504192508 | 42 | 101 | 1.0 | 2.0 | 0.03 | 0.49 | 0.39 | 94 | 1013.6 |
| 20260504192010 | 42 | 118 | 0.0 | 2.0 | 0.03 | 0.48 | 0.38 | 95 | 1013.7 |
| 20260504191532 | 42 | 77 | 0.0 | 4.0 | 0.03 | 0.48 | 0.38 | 94 | 1013.8 |
| 20260504191011 | 42 | 82 | 0.0 | 4.0 | 0.03 | 0.48 | 0.38 | 94 | 1013.8 |
| 20260504190513 | 42 | 350 | 0.0 | 3.0 | 0.03 | 0.48 | 0.38 | 95 | 1014.0 |
| 20260504190030 | 42 | 0 | 0.0 | 3.0 | 0.04 | 0.48 | 0.38 | 95 | 1014.1 |
| 20260504185508 | 42 | 0 | 0.0 | 3.0 | 0.04 | 0.48 | 0.38 | 94 | 1014.1 |
| 20260504185009 | 42 | 0 | 0.0 | 3.0 | 0.03 | 0.47 | 0.37 | 94 | 1014.1 |
| 20260504184528 | 42 | 290 | 0.0 | 2.0 | 0.04 | 0.47 | 0.37 | 94 | 1014.1 |
| 20260504184009 | 42 | 44 | 1.0 | 4.0 | 0.04 | 0.47 | 0.37 | 94 | 1014.1 |
| 20260504183507 | 42 | 55 | 1.0 | 4.0 | 0.03 | 0.46 | 0.36 | 94 | 1014.3 |
| 20260504183030 | 41 | 32 | 0.0 | 2.0 | 0.04 | 0.46 | 0.36 | 94 | 1014.3 |
| 20260504182513 | 41 | 70 | 0.0 | 2.0 | 0.04 | 0.46 | 0.36 | 94 | 1014.4 |
| 20260504182011 | 41 | 0 | 0.0 | 3.0 | 0.03 | 0.45 | 0.35 | 94 | 1014.4 |
| 20260504181529 | 41 | 78 | 0.0 | 3.0 | 0.03 | 0.45 | 0.35 | 94 | 1014.6 |
| 20260504181011 | 41 | 92 | 0.0 | 3.0 | 0.04 | 0.45 | 0.35 | 94 | 1014.7 |
| 20260504180510 | 41 | 123 | 0.0 | 3.0 | 0.03 | 0.44 | 0.34 | 94 | 1014.7 |
| 20260504180030 | 41 | 345 | 0.0 | 2.0 | 0.03 | 0.44 | 0.34 | 94 | 1014.7 |
| 20260504175511 | 41 | 0 | 0.0 | 3.0 | 0.04 | 0.44 | 0.34 | 94 | 1014.7 |
| 20260504175009 | 41 | 132 | 0.0 | 4.0 | 0.04 | 0.44 | 0.34 | 94 | 1014.7 |
| 20260504174528 | 41 | 64 | 0.0 | 4.0 | 0.03 | 0.43 | 0.33 | 94 | 1014.6 |
| 20260504174009 | 41 | 50 | 1.0 | 4.0 | 0.03 | 0.43 | 0.33 | 94 | 1014.9 |
| 20260504173506 | 41 | 263 | 0.0 | 3.0 | 0.03 | 0.43 | 0.33 | 94 | 1014.8 |
| 20260504173029 | 41 | 329 | 0.0 | 3.0 | 0.03 | 0.42 | 0.32 | 94 | 1014.9 |
| 20260504172507 | 41 | 26 | 1.0 | 3.0 | 0.03 | 0.42 | 0.32 | 94 | 1015.0 |
| 20260504172010 | 41 | 53 | 0.0 | 3.0 | 0.03 | 0.42 | 0.32 | 95 | 1015.0 |
| 20260504171528 | 41 | 82 | 0.0 | 3.0 | 0.04 | 0.42 | 0.32 | 95 | 1015.1 |
| 20260504171007 | 41 | 111 | 0.0 | 2.0 | 0.03 | 0.41 | 0.31 | 95 | 1015.0 |
| 20260504170517 | 41 | 82 | 0.0 | 2.0 | 0.03 | 0.41 | 0.31 | 95 | 1015.0 |
| 20260504151011 | 40 | 0 | 0.0 | 2.0 | 0.03 | 0.35 | 0.25 | 95 | 1015.6 |
| 20260504150510 | 40 | 84 | 0.0 | 2.0 | 0.03 | 0.35 | 0.25 | 95 | 1015.8 |
| 20260504141012 | 40 | 0 | 0.0 | 0.0 | 0.04 | 0.32 | 0.22 | 95 | 1016.1 |
| 20260504140510 | 40 | 0 | 0.0 | 0.0 | 0.05 | 0.32 | 0.22 | 95 | 1016.2 |
| 20260504130509 | 39 | 0 | 0.0 | 0.0 | 0.04 | 0.27 | 0.17 | 95 | 1016.5 |
| 20260504110509 | 40 | 0 | 0.0 | 0.0 | 0.04 | 0.19 | 0.09 | 95 | 1017.1 |
| 20260504100510 | 39 | 0 | 0.0 | 0.0 | 0.02 | 0.15 | 0.05 | 95 | 1017.2 |
| 20260504081531 | 40 | 350 | 0.0 | 1.0 | 0.03 | 0.11 | 0.01 | 94 | 1017.7 |
| 20260504081009 | 40 | 55 | 0.0 | 1.0 | 0.03 | 0.10 | 0.00 | 94 | 1017.7 |
| 20260504080510 | 40 | 338 | 0.0 | 2.0 | 0.03 | 0.10 | 0.00 | 94 | 1017.7 |
| 20260504050511 | 41 | 0 | 0.0 | 1.0 | 0.02 | 0.03 | 0.03 | 92 | 1017.5 |
| 20260504045510 | 41 | 46 | 0.0 | 1.0 | 0.02 | 0.03 | 0.03 | 91 | 1017.5 |
| 20260504045010 | 41 | 51 | 0.0 | 1.0 | 0.02 | 0.03 | 0.03 | 91 | 1017.6 |
| 20260504044529 | 42 | 0 | 0.0 | 1.0 | 0.02 | 0.03 | 0.03 | 91 | 1017.6 |
| 20260504044010 | 42 | 327 | 0.0 | 2.0 | 0.03 | 0.03 | 0.03 | 90 | 1017.5 |
| 20260504043510 | 42 | 0 | 0.0 | 2.0 | 0.02 | 0.02 | 0.02 | 90 | 1017.7 |
| 20260504043029 | 42 | 335 | 0.0 | 1.0 | 0.02 | 0.02 | 0.02 | 90 | 1017.8 |
| 20260504042509 | 42 | 345 | 0.0 | 3.0 | 0.02 | 0.02 | 0.02 | 89 | 1017.7 |
| 20260504042011 | 42 | 77 | 0.0 | 3.0 | 0.02 | 0.02 | 0.02 | 89 | 1017.6 |
| 20260504041539 | 42 | 57 | 0.0 | 3.0 | 0.02 | 0.02 | 0.02 | 88 | 1017.8 |
| 20260504041008 | 42 | 81 | 0.0 | 2.0 | 0.02 | 0.02 | 0.02 | 88 | 1017.8 |
| 20260504040510 | 43 | 0 | 0.0 | 2.0 | 0.01 | 0.01 | 0.01 | 87 | 1017.8 |
| 20260504040032 | 43 | 92 | 0.0 | 1.0 | 0.01 | 0.01 | 0.01 | 87 | 1017.9 |
| 20260504035510 | 43 | 0 | 0.0 | 1.0 | 0.01 | 0.01 | 0.01 | 87 | 1017.9 |
| 20260504035011 | 43 | 38 | 0.0 | 1.0 | 0.01 | 0.01 | 0.01 | 86 | 1018.0 |
| 20260504034533 | 43 | 37 | 0.0 | 2.0 | 0.01 | 0.01 | 0.01 | 85 | 1018.1 |
| 20260504034010 | 44 | 0 | 0.0 | 2.0 | 0.00 | 0.00 | 0.00 | 85 | 1018.1 |
| 20260504033509 | 44 | 38 | 0.0 | 2.0 | 0.00 | 0.00 | 0.00 | 84 | 1018.2 |
| 20260504033028 | 44 | 348 | 0.0 | 2.0 | 0.00 | 0.00 | 0.00 | 83 | 1018.1 |
| 20260504032515 | 44 | 0 | 0.0 | 2.0 | 0.00 | 0.00 | 0.00 | 82 | 1018.1 |
| 20260504032011 | 44 | 0 | 0.0 | 3.0 | 0.00 | 0.00 | 0.00 | 81 | 1018.2 |
| 20260504031533 | 45 | 55 | 0.0 | 3.0 | 0.00 | 0.00 | 0.00 | 81 | 1018.2 |
| 20260504031010 | 45 | 115 | 0.0 | 3.0 | 0.00 | 0.00 | 0.00 | 80 | 1018.2 |
| 20260504030509 | 45 | 82 | 0.0 | 3.0 | 0.00 | 0.00 | 0.00 | 79 | 1018.2 |
| 20260504030034 | 45 | 126 | 0.0 | 3.0 | 0.00 | 0.00 | 0.00 | 77 | 1018.3 |
| 20260504025509 | 45 | 34 | 0.0 | 3.0 | 0.00 | 0.00 | 0.00 | 76 | 1018.1 |
| 20260504025010 | 45 | 112 | 0.0 | 3.0 | 0.00 | 0.00 | 0.00 | 75 | 1018.3 |
| 20260504024531 | 45 | 104 | 0.0 | 3.0 | 0.00 | 0.00 | 0.00 | 73 | 1018.2 |
| 20260504024010 | 46 | 125 | 0.0 | 2.0 | 0.00 | 0.00 | 0.00 | 75 | 1018.2 |
| 20260504023509 | 46 | 91 | 0.0 | 2.0 | 0.00 | 0.00 | 0.00 | 74 | 1018.1 |
| 20260504023030 | 46 | 119 | 0.0 | 2.0 | 0.00 | 0.00 | 0.00 | 72 | 1018.2 |
| 20260504022511 | 46 | 89 | 0.0 | 6.0 | 0.00 | 0.00 | 0.00 | 72 | 1018.1 |
| 20260504022009 | 47 | 78 | 1.0 | 6.0 | 0.00 | 0.00 | 0.00 | 69 | 1018.2 |
| 20260504021530 | 47 | 129 | 1.0 | 4.0 | 0.00 | 0.00 | 0.00 | 67 | 1018.2 |
| 20260504021012 | 47 | 128 | 0.0 | 7.0 | 0.00 | 0.00 | 0.00 | 68 | 1018.2 |
| 20260504020510 | 48 | 72 | 0.0 | 7.0 | 0.00 | 0.00 | 0.00 | 66 | 1018.1 |
| 20260504020036 | 48 | 143 | 2.0 | 7.0 | 0.00 | 0.00 | 0.00 | 63 | 1018.1 |
| 20260504015509 | 48 | 0 | 0.0 | 2.0 | 0.00 | 0.00 | 0.00 | 63 | 1018.2 |
| 20260504015010 | 48 | 87 | 0.0 | 3.0 | 0.00 | 0.00 | 0.00 | 62 | 1018.1 |
| 20260504014532 | 49 | 94 | 0.0 | 3.0 | 0.00 | 0.00 | 0.00 | 61 | 1018.2 |
| 20260504014010 | 49 | 123 | 0.0 | 1.0 | 0.00 | 0.00 | 0.00 | 62 | 1018.3 |
| 20260504013513 | 49 | 132 | 0.0 | 3.0 | 0.00 | 0.00 | 0.00 | 64 | 1018.3 |
| 20260504013032 | 49 | 54 | 1.0 | 3.0 | 0.00 | 0.00 | 0.00 | 62 | 1018.3 |
| 20260504012511 | 49 | 89 | 0.0 | 3.0 | 0.00 | 0.00 | 0.00 | 61 | 1018.3 |
| 20260504012011 | 49 | 344 | 1.0 | 3.0 | 0.00 | 0.00 | 0.00 | 60 | 1018.4 |
| 20260504011530 | 49 | 131 | 0.0 | 3.0 | 0.00 | 0.00 | 0.00 | 60 | 1018.3 |
| 20260504011010 | 49 | 22 | 1.0 | 3.0 | 0.00 | 0.00 | 0.00 | 58 | 1018.3 |
| 20260504010511 | 49 | 123 | 1.0 | 3.0 | 0.00 | 0.00 | 0.00 | 57 | 1018.4 |
| 20260504010029 | 49 | 65 | 0.0 | 3.0 | 0.00 | 0.00 | 0.00 | 58 | 1018.4 |
| 20260504005510 | 49 | 0 | 0.0 | 2.0 | 0.00 | 0.00 | 0.00 | 58 | 1018.4 |
| 20260504005011 | 49 | 84 | 1.0 | 3.0 | 0.00 | 0.00 | 0.00 | 57 | 1018.5 |
| 20260504004528 | 49 | 88 | 0.0 | 5.0 | 0.00 | 0.00 | 0.00 | 57 | 1018.6 |
| 20260504004010 | 49 | 121 | 0.0 | 6.0 | 0.00 | 0.00 | 0.00 | 57 | 1018.5 |
| 20260504003510 | 49 | 125 | 1.0 | 8.0 | 0.00 | 0.00 | 0.00 | 57 | 1018.4 |